User: anonymous   Login
Location: Caltech
(34.1382°N, 118.1253°W)
Time: 11:42:33
(UTC-08:00)
Language:

Cosmos 2333 Rocket - Orbit

View from above orbital plane
View from above orbital plane
View from above satellite
View from above satellite

Ground track
Ground track

The orbit data is extracted from the following two-line orbital elements,

1 24298U 96051B   15032.17576172 -.00000187  00000-0 -75005-4 0  6584
2 24298 070.8528 089.6868 0014818 022.8829 039.4977 14.12444204949406
Epoch (UTC): 01 February 2015 04:13:05
Eccentricity: 0.0014818
inclination: 70.8528°
perigee height: 840 km
apogee height: 862 km
right ascension of ascending node: 89.6868°
argument of perigee: 22.8829°
revolutions per day: 14.12444204
mean anomaly at epoch: 39.4977°
orbit number at epoch: 94940

The dashed part of the orbit path shows where the satellite is in the earth's shadow,  

DLR